Weather Roundup
Issued by NWS Springfield, MO

Home | Current Version | Previous Version | Text Only | Print | Product List | Glossary On
Versions: 1 2 3 4 5 6 7 8 9 10 11 12 13 14 15 16 17 18 19 20 21 22 23 24 25 26 27 28 29 30 31 32 33 34 35 36 37 38 39 40 41 42 43 44 45 46 47 48 49 50
000
NZUS99 KSGF 271307
HRRSGF

HOURLY WEATHER
NATIONAL WEATHER SERVICE SPRINGFIELD MO
800 AM CDT MON MAR 27 2017

......SGF CWA......

CITY           SKY/WX    TMP DP  RH WIND       PRES   REMARKS
SPRINGFIELD    LGT RAIN  55  54  96 S12       29.78R
JOPLIN         CLOUDY    53  53 100 NW9       29.83R
WEST PLAINS    RAIN      55  54  96 CALM      29.87R FOG
ROLLA          CLOUDY    53  53 100 SE10      29.81S
OSAGE BEACH    CLOUDY   N/A N/A N/A E5        29.81R
BRANSON        LGT RAIN  54  54 100 E7        29.81S FOG

......SURROUNDING SGF CWA......

CITY           SKY/WX    TMP DP  RH WIND       PRES   REMARKS
CHANUTE        CLOUDY    50  47  89 N9        29.85R
PARSONS        CLOUDY    51  49  92 N10       29.85R FOG
COFFEYVILLE    CLOUDY    51  50  96 N12       29.85R FOG
EMPORIA        CLOUDY    45  45 100 N9        29.88R
GROVE OK       CLOUDY    55  55 100 CALM      29.80R
ROGERS AR      CLOUDY    55  54  96 SE8       29.80R
SILOAM SPRINGS CLOUDY    55  52  88 E7        29.79R
HARRISON AR    CLOUDY    54  54 100 SE7       29.81R
NEAR YELLVILLE CLOUDY    55  48  76 SE8       29.80S

......KANSAS AND MISSOURI......

CITY           SKY/WX    TMP DP  RH WIND       PRES   REMARKS
KANSAS CTY INT LGT RAIN  46  45  96 N10       29.89R FOG
DOWNTOWN KC    LGT RAIN  48  46  93 N7        29.88R FOG
COLUMBIA       LGT RAIN  50  49  96 NE13      29.83R FOG
SEDALIA        LGT RAIN  50  49  96 E7        29.84R FOG
ST JOSEPH      LGT RAIN  46  46 100 N9        29.91R FOG
ST LOUIS       LGT RAIN  53  50  89 NE6       29.87F FOG
SPIRIT OF STL  RAIN      51  51 100 NE6       29.85F FOG
KIRKSVILLE     LGT RAIN  46  45  96 NE9       29.90R FOG
WICHITA        CLOUDY    48  46  93 N9        29.92R
TOPEKA         LGT RAIN  47  47 100 N9        29.88S
OLATHE         LGT RAIN  46  46 100 N12       29.86R

......TENNESSEE......

CITY           SKY/WX    TMP DP  RH WIND       PRES   REMARKS
MEMPHIS        CLOUDY    65  55  70 SE7       29.88F
NASHVILLE      CLOUDY    66  60  81 S14       29.97S

......ARKANSAS.......

CITY           SKY/WX    TMP DP  RH WIND       PRES   REMARKS
FAYETTEVILLE   CLOUDY    56  56 100 CALM      29.80R
FT SMITH       CLOUDY    60  55  83 E3        29.77R
LITTLE ROCK    PTSUNNY   57  57 100 S12       29.83F

......OKLAHOMA.......

CITY           SKY/WX    TMP DP  RH WIND       PRES   REMARKS
TULSA          CLOUDY    55  52  89 NW14      29.83R
PONCA CITY     CLOUDY    51  46  83 NW6       29.91R
MCALESTER      CLOUDY    58  53  84 W10       29.84R
OKLAHOMA CITY  CLOUDY    52  47  83 N21       29.90R

......IOWA............

CITY           SKY/WX    TMP DP  RH WIND       PRES   REMARKS
DES MOINES     CLOUDY    43  40  89 N9        29.93S
QUAD CITIES    CLOUDY    49  45  86 CALM      29.92R FOG

......ILLINOIS........

CITY           SKY/WX    TMP DP  RH WIND       PRES   REMARKS
QUINCY         LGT RAIN  47  46  97 E7        29.91R FOG
CHICAGO        CLOUDY    49  47  93 N5        29.92S FOG



USA.gov is the U.S. government's official web portal to all federal, state and local government web resources and services.